Iron Mountain, MI

8:48 AM CDT on July 21, 2017 (GMT -0500)
Ford

Weather History for KIMT - February, 2012

Change the Weather History Date:

Friday, February 24, 2012

  Actual Average Record
Temperature  
Mean Temperature 26 °F -  
Max Temperature 30 °F 32 °F 61 °F (1976)
Min Temperature 21 °F 11 °F -17 °F (1964)
Degree Days  
Heating Degree Days 40    
Moisture  
Dew Point 20 °F    
Average Humidity 77    
Maximum Humidity 89    
Minimum Humidity 59    
Precipitation  
Precipitation 0.00 in - - ()
Sea Level Pressure  
Sea Level Pressure 29.69 in    
Wind  
Wind Speed 9 mph (NNW)    
Max Wind Speed 16 mph    
Max Gust Speed 25 mph    
Visibility 8 miles    
Events Snow    
Averages and records for this station are not official NWS values.
T = Trace of Precipitation, MM = Missing Value Source: NWS Daily Summary

Daily Weather History Graph

Daily Weather History Graph

Search for Another Location

Airport or City:

Trip Planner

Search our weather history database for the weather conditions in past years. The results will help you decide how hot, cold, wet, or windy it might be!

Date:

Astronomy

Feb. 24, 2012 Rise Set
Actual Time 6:40 AM CST 5:31 PM CST
Civil Twilight 6:10 AM CST 6:01 PM CST
Nautical Twilight 5:36 AM CST 6:36 PM CST
Astronomical Twilight 5:01 AM CST 7:10 PM CST
Moon 7:23 AM CST (2/24) 8:48 PM CST (2/24)
Length of Visible Light 11h 50m
Length of Day
10h 50m
Waxing Crescent, 8% of the Moon is Illuminated
Feb 24
Waxing Crescent
Feb 29
First Quarter
Mar 8
Full
Mar 14
Last Quarter
Mar 22
New

Hourly Weather History & Observations

Time (CST) Temp. Windchill Dew Point Humidity Pressure Visibility Wind Dir Wind Speed Gust Speed Precip Events Conditions
12:04 AM 28.4 °F 22.2 °F 21.2 °F 74% 29.62 in 10.0 mi NE 5.8 mph - N/A   Overcast
12:54 AM 28.0 °F 21.7 °F 23.0 °F 81% 29.66 in 10.0 mi NNE 5.8 mph - N/A   Overcast
1:54 AM 27.0 °F 20.5 °F 24.1 °F 89% 29.65 in 9.0 mi North 5.8 mph - N/A   Overcast
2:54 AM 27.0 °F 20.5 °F 24.1 °F 89% 29.64 in 6.0 mi North 5.8 mph - 0.00 in Snow Light Snow
3:54 AM 27.0 °F 19.5 °F 24.1 °F 89% 29.63 in 10.0 mi North 6.9 mph - 0.00 in   Overcast
4:21 AM 26.6 °F 18.2 °F 23.0 °F 86% 29.58 in 10.0 mi North 8.1 mph - N/A   Overcast
4:45 AM 26.6 °F 19.1 °F 23.0 °F 86% 29.58 in 10.0 mi North 6.9 mph - N/A   Overcast
4:54 AM 26.1 °F 18.4 °F 23.0 °F 88% 29.63 in 10.0 mi North 6.9 mph - N/A   Overcast
5:54 AM 26.1 °F 17.6 °F 21.9 °F 84% 29.62 in 6.0 mi North 8.1 mph - 0.00 in   Overcast
6:54 AM 26.1 °F 20.5 °F 21.9 °F 84% 29.64 in 10.0 mi North 4.6 mph - N/A   Overcast
7:54 AM 26.1 °F 17.6 °F 21.9 °F 84% 29.65 in 10.0 mi NNW 8.1 mph - N/A   Overcast
8:54 AM 26.1 °F 16.2 °F 21.0 °F 81% 29.65 in 10.0 mi North 10.4 mph - N/A   Overcast
9:54 AM 27.0 °F 18.7 °F 21.0 °F 78% 29.65 in 10.0 mi NNW 8.1 mph - N/A   Overcast
10:54 AM 28.9 °F 19.8 °F 19.9 °F 69% 29.64 in 10.0 mi NW 10.4 mph - N/A   Overcast
11:54 AM 30.0 °F 19.5 °F 17.1 °F 59% 29.63 in 10.0 mi NNW 13.8 mph 23.0 mph N/A   Overcast
12:54 PM 28.9 °F 18.2 °F 19.0 °F 67% 29.64 in 7.0 mi NNW 13.8 mph 25.3 mph 0.00 in Snow Light Snow
1:54 PM 30.0 °F 19.1 °F 19.0 °F 64% 29.65 in 10.0 mi NNW 15.0 mph 23.0 mph 0.00 in   Overcast
2:54 PM 30.0 °F 20.0 °F 19.9 °F 66% 29.68 in 10.0 mi NNW 12.7 mph - N/A   Overcast
3:54 PM 28.9 °F 19.2 °F 21.0 °F 72% 29.70 in 8.0 mi NW 11.5 mph 18.4 mph 0.00 in   Overcast
4:48 PM 28.4 °F 19.1 °F 21.2 °F 74% 29.67 in 1.8 mi NNW 10.4 mph - 0.00 in Snow Light Snow
4:54 PM 28.0 °F 19.3 °F 21.9 °F 78% 29.72 in 1.5 mi NNW 9.2 mph - 0.00 in Snow Light Snow
5:03 PM 28.4 °F 18.5 °F 21.2 °F 74% 29.67 in 3.0 mi NW 11.5 mph - 0.00 in Snow Light Snow
5:15 PM 28.4 °F 20.4 °F 21.2 °F 74% 29.68 in 7.0 mi NNW 8.1 mph - 0.00 in Snow Light Snow
5:54 PM 27.0 °F 17.3 °F 19.9 °F 75% 29.75 in 10.0 mi NW 10.4 mph - 0.00 in   Overcast
6:54 PM 27.0 °F 16.1 °F 17.1 °F 66% 29.77 in 10.0 mi NW 12.7 mph - N/A   Overcast
7:54 PM 25.0 °F 13.6 °F 16.0 °F 69% 29.79 in 10.0 mi NW 12.7 mph - N/A   Scattered Clouds
8:54 PM 24.1 °F 12.0 °F 16.0 °F 71% 29.81 in 10.0 mi NW 13.8 mph 20.7 mph N/A   Overcast
9:54 PM 24.1 °F 12.5 °F 17.1 °F 75% 29.81 in 4.0 mi NW 12.7 mph - 0.00 in Snow Light Snow
10:08 PM 23.0 °F 11.1 °F 17.6 °F 80% 29.76 in 2.0 mi NW 12.7 mph - 0.00 in Snow Light Snow
10:29 PM 23.0 °F 9.6 °F 17.6 °F 80% 29.76 in 4.0 mi WNW 16.1 mph - 0.00 in Snow Light Snow
10:42 PM 21.2 °F 7.8 °F 15.8 °F 80% 29.76 in 9.0 mi NW 15.0 mph 23.0 mph 0.00 in   Overcast
10:54 PM 21.9 °F 9.2 °F 16.0 °F 78% 29.82 in 10.0 mi NW 13.8 mph - 0.00 in   Overcast
11:54 PM 21.9 °F 11.0 °F 15.1 °F 75% 29.82 in 10.0 mi NW 10.4 mph - N/A   Overcast